NOAA 16 DEB, 42426

Orbit data source: Space-Track

NOAA 16 DEB, 42426 is space debris in SSO originally from a launch on Thu, 21 Sep 2000 UTC launched from the Air Force Western Test Range (AFWTR). Debris objects in space refer to the collection of defunct objects orbiting the Earth. Examples of debris include non-operational satellites, rocket bodies, and fragments generated from explosions, collisions, or faulty payload assembly.

Loading next visibility...
Identifier
42426, 2000-055TW
Orbit
SSO
Country
Flag of USUS
Related business
Manufacturer
Unknown
Mission
Spacecraft
Bus & Motor
Unknown
Mass
Unknown
Launch date (UTC)
2000-09-21 (26 years ago)
Launch vehicle
Unknown
Launch site
Air Force Western Test Range (AFWTR)
Object type
Payload
Rocket body
Debris
Shape & HBR
Unknown shape, 0.1 m
Radar Cross Section
Small (<0.1 m²)

Expand to show TLE details & history
Last TLE update: 4 days ago

TLE from 4 days ago
0 NOAA 16 DEB
1 42426U 00055TW  26253.29483834  .00002116  00000-0  90270-3 0  9998
2 42426  98.5768 274.5664 0011025 252.0414 107.9564 14.26086650520393
Epoch: 2026-09-10T07:04Z
TLE epoch observation values (Epoch: 2026-09-10T07:04:34.032Z)
Latitude
-0.0001°
Longitude
179.09001°
Altitude
810.218 km
Speed
7.447 km/s
True Right ascension
18h 18m 15s
True Declination
0° 00' 00"
Sunlit
Object was in daylight at epoch
Visualization orbit readout
Latitude
Unknown
Longitude
Unknown
Altitude
Unknown
Speed
Unknown
Apparent Right ascension
Unknown
Apparent Declination
Unknown
Sunlit
N/A
Visualization observer readout
Local Sidereal Time
19:10:43
Azimuth
Unknown
Elevation
Unknown
Doppler factor
Unknown
Orbital elements
Apogee altitude
809.902 km
Perigee altitude
794.07 km
Semi-major axis
7,180.123 km
Eccentricity
0.0011
Inclination
98.5768°
RAAN
274.5664°
Arg. of periapsis
252.0414°
True anomaly
108.07653°
Mean anomaly
107.9564°
Eccentric anomaly
108.01647°
Mean motion
3.56735 °/min
Orbital period
100.92 mins
BSTAR
0.0009027
Loading maneuver chart data...
Computing Atmospheric mass density...
Loading historical data...
Loading historical data...
Loading historical data...
Loading historical data...
Loading historical data...
Loading historical data...
Loading historical data...

Documentation

Showing up to 5 results
|